SCP
0 0 0 0 0 0 0 0 0 0 0 0 0 0 0 0 0 0 0 0 0 0 0 0 0 0 0 0 0 0 0 0 0 0 0 0 0 0 0 0 0 0 0 0 0 0 0 0 0
0 0 0 0 0 0 0 0 0 0 0 0 0 0 0 0 0 0 0 0 0 0 0 0 0 0 0 0 0 0 0 0 0 0 0 0 0 0 0 0 0 0 0 0 0 0 0 0 0
0 0 0 0 0 0 0 0 0 0 0 0 0 0 0 0 0 0 0 0 0 0 0 0 0 0 0 0 0 0 0 0 0 0 0 0 0 0 0 0 0 0 0 0 0 0 0 0 0
0 0 0 0 0 0 0 0 0 0 0 0 0 0 0 0 0 0 0 0 0 0 0 0 0 0 0 0 0 0 0 0 0 0 0 0 0 0 0 0 0 0 0 0 0 0 0 0 0
0 0 0 0 0 0 0 0 0 0 0 0 0 0 0 0 0 0 0 0 0 0 0 0 0 0 0 0 0 0 0 0 0 0 0 0 0 0 0 0 0 0 0 0 0 0 0 0 0
0 0 0 0 0 0 0 0 0 0 0 0 0 0 0 0 0 0 0 0 0 0 0 0 0 0 0 0 0 0 0 0 0 0 0 0 0 0 0 0 0 0 0 0 0 0 0 0 0
0 0 0 0 0 0 0 0 0 0 0 0 0 0 0 0 0 0 0 0 0 0 0 0 0 0 0 0 0 0 0 0 0 0 0 0 0 0 0 0 0 0 0 0 0 0 0 0 0
0 0 0 0 0 0 0 0 0 0 0 0 0 0 0 0 0 0 0 0 0 0 0 0 0 0 0 0 0 0 0 0 0 0 0 0 0 0 0 0 0 0 0 0 0 0 0 0 0
0 0 0 0 0 0 0 0 0 0 0 0 0 0 0 0 0 0 0 0 0 0 0 0 0 0 0 0 0 0 0 0 0 0 0 0 0 0 0 0 0 0 0 0 0 0 0 0 0
0 0 0 0 0 0 0 0 0 0 0 0 0 0 0 0 0 0 0 0 0 0 0 0 0 0 0 0 0 0 0 0 0 0 0 0 0 0 0 0 0 0 0 0 0 0 0 0 0
0 0 0 0 0 0 0 0 0 0 0 0 0 0 0 0 0 0 0 0 0 0 0 0 0 0 0 0 0 0 0 0 0 0 0 0 0 0 0 0 0 0 0 0 0 0 0 0 0
0 0 0 0 0 0 0 0 0 0 0 0 0 0 0 0 0 0 0 0 0 0 0 0 0 0 0 0 0 0 0 0 0 0 0 0 0 0 0 0 0 0 0 0 0 0 0 0 0
0 0 0 0 0 0 0 0 0 0 0 0 0 0 0 0 0 0 0 0 0 0 0 0 0 0 0 0 0 0 0 0 0 0 0 0 0 0 0 0 0 0 0 0 0 0 0 0 0
0 0 0 0 0 0 0 0 0 0 0 0 0 0 0 0 0 0 0 0 0 0 0 0 0 0 0 0 0 0 0 0 0 0 0 0 0 0 0 0 0 0 0 0 0 0 0 0 0
0 0 0 0 0 0 0 0 0 0 0 0 0 0 0 0 0 0 0 0 0 0 0 0 0 0 0 0 0 0 0 0 0 0 0 0 0 0 0 0 0 0 0 0 0 0 0 0 0
0 0 0 0 0 0 0 0 0 0 0 0 0 0 0 0 0 0 0 0 0 0 0 0 0 0 0 0 0 0 0 0 0 0 0 0 0 0 0 0 0 0 0 0 0 0 0 0 0
0 0 0 0 0 0 0 0 0 0 0 0 0 0 0 0 0 0 0 0 0 0 0 0 0 0 0 0 0 0 0 0 0 0 0 0 0 0 0 0 0 0 0 0 0 0 0 0 0
0 0 0 0 0 0 0 0 0 0 0 0 0 0 0 0 0 0 0 0 0 0 0 0 0 0 0 0 0 0 0 0 0 0 0 0 0 0 0 0 0 0 0 0 0 0 0 0 0
0 0 0 0 0 0 0 0 0 0 0 0 0 0 0 0 0 0 0 0 0 0 0 0 0 0 0 0 0 0 0 0 0 0 0 0 0 0 0 0 0 0 0 0 0 0 0 0 0
0 0 0 0 0 0 0 0 0 0 0 0 0 0 0 0 0 0 0 0 0 0 0 0 0 0 0 0 0 0 0 0 0 0 0 0 0 0 0 0 0 0 0 0 0 0 0 0 0
0 0 0 0 0 0 0 0 0 0 0 0 0 0 0 0 0 0 0 0 0 0 0 0 0 0 0 0 0 0 0 0 0 0 0 0 0 0 0 0 0 0 0 0 0 0 0 0 0
0 0 0 0 0 0 0 0 0 0 0 0 0 0 0 0 0 0 0 0 0 0 0 0 0 0 0 0 0 0 0 0 0 0 0 0 0 0 0 0 0 0 0 0 0 0 0 0 0
0 0 0 0 0 0 0 0 0 0 0 0 0 0 0 0 0 0 0 0 0 0 0 0 0 0 0 0 0 0 0 0 0 0 0 0 0 0 0 0 0 0 0 0 0 0 0 0 0
0 0 0 0 0 0 0 0 0 0 0 0 0 0 0 0 0 0 0 0 0 0 0 0 0 0 0 0 0 0 0 0 0 0 0 0 0 0 0 0 0 0 0 0 0 0 0 0 0
0 0 0 0 0 0 0 0 0 0 0 0 0 0 0 0 0 0 0 0 0 0 0 0 0 0 0 0 0 0 0 0 0 0 0 0 0 0 0 0 0 0 0 0 0 0 0 0 0
0 0 0 0 0 0 0 0 0 0 0 0 0 0 0 0 0 0 0 0 0 0 0 0 0 0 0 0 0 0 0 0 0 0 0 0 0 0 0 0 0 0 0 0 0 0 0 0 0
0 0 0 0 0 0 0 0 0 0 0 0 0 0 0 0 0 0 0 0 0 0 0 0 0 0 0 0 0 0 0 0 0 0 0 0 0 0 0 0 0 0 0 0 0 0 0 0 0
0 0 0 0 0 0 0 0 0 0 0 0 0 0 0 0 0 0 0 0 0 0 0 0 0 0 0 0 0 0 0 0 0 0 0 0 0 0 0 0 0 0 0 0 0 0 0 0 0
0 0 0 0 0 0 0 0 0 0 0 0 0 0 0 0 0 0 0 0 0 0 0 0 0 0 0 0 0 0 0 0 0 0 0 0 0 0 0 0 0 0 0 0 0 0 0 0 0
0 0 0 0 0 0 0 0 0 0 0 0 0 0 0 0 0 0 0 0 0 0 0 0 0 0 0 0 0 0 0 0 0 0 0 0 0 0 0 0 0 0 0 0 0 0 0 0 0
Wind_Speed
6 5 3 1 2 3 2 2 0 1 1 2 3 4 5 3 2 2 1 5 6 5 4 6 8 7 7 7 7 7 8 9 10 10 10 10 11 11 11 10 10 10 10 10 10 10 10 10 10
5 4 1 1 3 2 2 2 2 1 3 3 4 4 4 3 3 5 3 4 6 6 4 5 8 8 7 7 7 7 8 9 10 10 10 10 10 10 10 10 10 10 10 9 10 10 10 10 10
6 3 1 2 2 2 1 1 2 3 3 2 3 4 4 2 3 3 3 7 6 5 3 5 9 8 7 7 7 7 7 8 9 9 9 9 9 9 9 9 9 9 9 9 9 9 9 10 9
2 0 1 2 1 2 2 1 3 3 3 4 4 4 4 3 2 4 7 8 7 4 3 4 9 8 7 7 7 7 7 7 8 8 8 8 8 9 9 8 8 8 8 9 9 9 9 9 9
1 1 3 2 3 2 1 2 1 2 2 3 4 4 3 4 5 7 7 7 6 4 3 3 8 8 7 7 6 6 6 7 7 7 7 7 7 7 8 8 7 7 7 7 8 8 8 8 8
1 2 3 1 3 2 0 1 2 3 3 3 4 4 2 2 5 6 6 5 4 4 2 2 6 7 7 7 6 6 6 6 6 6 6 6 6 6 6 7 6 7 7 7 7 8 8 7 7
1 2 1 1 1 1 1 1 2 3 4 3 4 5 2 2 3 5 5 5 4 3 3 2 2 4 6 6 6 5 5 5 4 4 5 5 5 5 5 5 5 5 5 6 7 7 7 7 7
2 2 1 1 1 1 1 2 2 3 3 4 4 6 4 4 6 6 5 5 4 3 2 2 2 2 2 2 4 4 4 4 3 3 3 4 4 3 3 3 3 3 5 5 6 6 6 6 6
2 3 1 2 2 2 1 2 2 3 4 2 3 4 5 10 9 7 5 4 3 2 1 1 2 2 2 1 2 3 3 2 2 1 2 2 1 1 1 1 2 2 3 4 5 5 5 5 5
2 2 5 4 3 2 1 2 3 3 3 2 4 6 10 10 9 8 6 5 4 3 2 2 2 2 2 2 1 1 1 1 1 1 1 1 1 1 0 1 1 2 1 2 3 4 4 3 1
4 5 3 2 1 2 1 1 2 6 2 4 8 11 11 9 8 7 6 6 5 4 4 3 3 2 2 1 1 1 1 1 1 1 1 1 1 1 1 1 1 1 1 1 0 0 1 1 1
3 4 3 2 0 1 2 2 2 3 4 6 10 12 11 10 9 8 7 5 4 4 4 3 3 3 2 1 1 1 1 1 1 1 1 1 1 1 1 1 1 1 1 0 0 0 0 1 1
2 2 1 2 1 2 3 3 3 1 3 8 11 11 10 10 8 6 5 4 4 4 4 4 4 3 2 2 1 1 1 1 0 1 1 1 1 1 1 1 1 1 1 0 0 1 0 1 1
2 1 2 1 1 1 4 3 3 2 6 9 10 9 9 9 8 5 5 5 5 5 5 4 4 4 3 2 1 1 1 1 1 1 1 1 1 1 1 1 1 1 1 0 0 0 0 0 1
1 2 4 2 1 2 5 3 1 4 7 8 9 8 8 7 6 7 7 6 6 5 5 5 5 4 4 3 2 1 1 1 1 0 1 1 1 1 1 1 1 1 1 1 1 1 1 1 1
3 3 2 2 1 2 5 2 2 5 8 7 7 8 7 6 6 6 6 5 5 5 4 4 5 5 4 3 2 1 1 1 1 0 1 1 1 1 1 1 1 1 2 2 2 1 2 1 1
3 1 2 3 0 2 3 3 3 5 7 7 7 7 7 5 5 5 5 5 5 5 5 5 4 5 4 3 2 2 2 1 1 1 1 1 1 1 2 1 1 1 2 2 1 2 1 1 1
3 2 2 3 2 2 2 3 3 5 6 7 6 6 6 6 7 5 5 5 5 4 4 5 4 4 4 3 2 1 1 1 1 1 0 1 1 2 2 1 1 1 2 2 2 2 2 1 0
4 3 3 3 2 2 2 3 2 4 4 5 5 6 6 7 5 4 4 5 5 5 5 5 5 5 4 3 2 2 1 1 0 0 0 1 1 2 2 1 1 2 2 1 2 1 2 2 1
3 2 2 2 0 2 1 2 2 4 6 6 6 6 6 4 3 3 4 5 6 6 7 6 6 6 5 4 3 2 2 1 1 0 1 1 1 2 2 2 1 1 2 2 2 2 1 1 2
2 4 4 3 1 3 2 3 2 2 2 3 3 4 4 6 6 5 5 5 6 6 7 7 7 6 5 5 3 2 2 2 1 1 0 1 1 2 2 2 2 1 1 1 1 1 1 1 1
3 3 4 3 3 1 1 2 5 2 3 4 5 5 5 5 6 5 6 6 7 7 6 5 6 5 5 6 5 5 3 2 2 1 1 1 1 2 2 2 2 1 1 1 0 1 1 2 1
4 2 3 3 3 1 2 1 6 1 3 6 6 7 6 6 6 6 8 8 7 6 5 5 5 5 5 5 7 6 4 2 1 1 2 1 1 1 1 1 1 1 1 1 1 2 2 1 1
4 5 6 6 5 1 2 2 6 3 5 4 4 5 6 6 6 5 5 5 5 5 5 5 5 4 4 5 6 6 6 5 4 3 2 1 1 1 1 2 1 1 1 1 1 1 2 1 1
4 6 4 4 3 5 2 2 8 6 5 5 5 5 5 5 5 5 5 5 5 5 5 5 6 5 5 6 6 6 6 7 6 5 3 3 1 1 1 1 1 1 1 1 1 2 1 1 1
4 8 7 5 5 4 1 5 7 4 4 3 3 3 3 4 4 5 5 5 5 6 6 6 6 5 5 6 6 5 6 5 4 5 4 4 3 2 2 2 2 1 1 2 2 2 1 1 1
5 3 5 7 2 1 4 6 8 2 2 1 1 1 2 3 4 4 4 5 5 5 5 6 6 5 5 6 5 4 4 4 3 3 3 3 2 2 2 2 2 1 1 2 2 1 1 1 1
5 8 6 6 6 3 4 4 5 5 5 3 2 2 3 2 2 2 3 4 5 5 5 5 5 6 5 5 5 4 4 4 4 4 3 3 2 2 2 2 2 2 1 1 2 1 1 1 0
3 4 5 5 5 6 4 8 6 8 7 6 6 4 4 4 3 3 2 3 4 3 4 4 4 4 4 4 4 4 4 4 4 4 3 3 2 3 3 3 2 2 2 2 2 1 1 1 0
3 5 7 6 4 4 4 8 4 5 5 5 4 3 3 3 3 2 2 2 3 3 3 4 4 4 4 5 4 4 4 4 4 3 3 3 3 3 3 2 2 2 2 2 2 2 2 1 1
Wind_Direction
164 146 139 153 45 41 336 314 233 60 75 55 97 99 107 99 138 147 130 135 133 139 151 153 144 135 126 120 114 113 111 114 119 118 120 124 131 135 137 139 141 143 144 143 145 146 146 146 146
150 155 171 60 69 43 324 322 77 99 129 110 77 72 76 66 79 110 129 143 134 139 139 147 141 136 129 121 117 114 115 117 122 123 125 128 133 137 140 142 143 145 147 148 151 151 152 150 147
161 188 88 62 75 169 260 326 105 92 91 82 75 56 70 88 118 137 151 138 128 132 134 156 142 139 130 124 119 116 117 119 123 127 129 132 137 141 144 146 147 149 150 152 152 153 155 154 152
153 143 52 58 339 249 214 205 132 106 46 48 93 73 60 56 125 134 131 132 128 131 136 163 146 144 137 129 124 121 121 124 126 128 134 138 141 146 148 150 150 151 153 155 156 156 156 158 159
90 61 49 9 308 295 210 191 165 115 76 63 87 86 47 19 89 114 128 132 133 131 132 162 148 146 143 138 135 131 129 129 132 130 132 138 139 145 151 153 154 157 158 160 163 163 162 165 166
58 58 63 348 316 330 4 166 126 104 103 94 95 95 63 73 106 122 121 123 122 124 122 141 151 149 146 141 140 139 136 133 134 137 139 138 141 145 156 159 161 162 165 170 169 169 172 173 174
99 80 90 260 299 328 165 110 121 125 117 123 117 100 96 125 132 123 112 106 104 108 111 117 137 151 155 152 148 145 143 144 143 141 140 138 141 145 152 163 170 172 171 172 172 176 178 179 182
146 96 358 292 268 273 166 115 103 113 115 116 114 130 164 172 134 112 101 94 98 98 103 117 114 113 127 153 160 156 153 149 145 144 137 133 135 139 151 167 178 186 188 180 179 184 183 181 188
135 70 279 232 201 242 181 119 86 74 101 94 91 133 148 136 125 116 108 96 116 125 115 126 122 122 119 133 168 158 157 149 149 144 133 109 78 70 136 194 199 205 199 198 200 196 194 189 193
125 148 229 224 194 190 199 145 142 104 100 90 83 96 120 131 139 146 148 157 167 177 181 166 158 149 138 168 139 79 75 59 50 38 42 46 48 43 70 291 252 242 231 215 202 195 189 189 187
174 207 240 256 216 173 163 128 129 128 165 188 157 146 143 146 155 163 166 176 187 186 188 184 174 163 156 164 122 86 59 49 38 37 44 50 45 27 24 7 349 341 333 2 341 163 157 162 163
195 246 231 268 148 136 151 129 114 161 200 171 154 151 153 158 170 177 177 184 185 179 195 184 172 166 168 154 136 114 97 70 48 34 50 61 46 26 21 14 357 7 6 24 56 80 77 130 181
210 265 237 229 223 157 117 108 124 174 132 133 139 146 160 170 179 185 181 173 171 182 191 182 169 170 168 149 156 139 137 120 73 39 38 69 77 40 32 14 9 7 16 26 71 98 103 114 156
217 251 320 323 104 101 110 90 96 169 134 135 146 160 171 181 183 177 173 180 183 186 186 175 170 172 161 162 168 155 154 148 89 54 36 73 76 60 42 22 18 9 3 24 93 125 133 118 132
87 38 4 12 73 100 89 43 174 166 141 147 161 171 178 189 187 188 188 187 187 187 183 177 171 162 164 176 182 164 162 135 121 91 58 88 100 101 81 41 24 11 29 51 69 68 74 76 77
34 48 0 302 60 85 106 243 244 152 153 169 179 182 187 196 198 197 187 181 181 177 177 177 173 166 174 175 170 147 132 132 131 96 70 85 104 105 92 63 16 18 51 62 72 67 68 53 55
32 46 272 302 43 124 136 228 231 170 166 184 189 190 192 196 205 204 193 182 177 177 172 171 170 167 173 161 144 124 118 129 131 101 72 67 86 98 98 68 19 38 58 54 61 69 76 72 51
215 221 241 248 257 121 176 244 219 188 182 197 196 193 192 199 212 202 197 185 170 169 169 171 172 168 157 138 117 100 91 93 95 101 84 96 97 98 101 82 48 61 63 50 58 74 62 63 59
180 184 239 253 215 133 216 263 238 197 197 211 209 198 197 209 212 190 185 178 163 165 175 182 178 175 156 149 156 160 186 205 201 187 110 117 112 109 104 80 65 70 74 65 73 87 72 43 37
180 182 233 295 200 146 220 288 266 199 207 210 213 214 208 204 203 197 183 179 178 184 186 188 189 181 177 177 168 161 155 167 190 244 63 93 103 105 116 116 105 81 76 58 56 74 83 41 38
216 192 204 197 51 44 65 329 295 264 226 217 217 219 214 203 205 203 198 190 185 192 193 196 194 184 182 171 136 111 84 66 59 19 12 39 110 119 118 123 113 93 95 87 53 75 116 108 36
251 223 180 159 110 305 112 268 284 262 256 227 222 222 220 219 211 210 206 199 197 202 195 188 182 177 178 166 160 160 161 173 194 183 169 67 92 114 120 123 126 121 112 111 101 96 117 130 105
204 113 109 109 120 74 18 184 282 301 259 246 229 220 218 216 210 211 208 204 202 195 184 184 175 176 173 170 172 167 161 162 148 125 115 83 62 91 109 116 117 125 122 128 108 92 95 115 137
135 69 58 53 69 16 246 183 274 240 229 245 236 222 217 213 211 212 210 189 189 184 175 172 170 184 178 175 173 171 164 158 151 150 149 139 105 76 98 120 133 142 153 156 134 112 100 106 113
102 93 42 4 9 252 249 204 249 251 231 223 228 228 214 202 200 196 190 185 188 184 182 177 176 184 180 177 179 181 176 171 173 174 171 166 167 181 203 159 147 156 173 155 129 117 114 124 125
172 145 158 191 217 268 293 236 254 257 253 228 205 216 212 200 198 200 195 186 190 192 186 180 178 183 180 180 182 180 180 179 175 173 173 178 183 195 190 169 164 169 159 148 131 118 146 123 137
142 175 158 131 142 253 276 283 299 268 278 233 181 183 228 218 207 205 194 183 185 188 186 182 177 175 178 180 173 173 176 166 161 162 166 172 180 185 165 163 163 164 152 148 140 135 163 131 144
137 142 107 125 151 228 276 268 250 252 246 241 218 209 225 216 199 199 198 189 187 185 179 171 175 176 176 171 172 171 168 160 155 150 156 167 174 165 150 159 164 155 141 133 124 125 126 115 114
114 111 115 119 150 161 232 263 229 218 218 211 215 211 207 194 184 185 191 180 176 166 164 166 171 168 168 172 171 169 166 163 156 161 172 174 174 175 174 176 170 163 157 152 145 162 149 136 71
165 163 148 152 198 174 186 261 274 220 212 200 210 208 186 173 161 155 145 126 143 155 162 169 171 173 179 175 167 173 162 153 160 172 175 171 172 180 183 177 170 171 159 163 169 188 173 168 182